Orbital elements:
2024 KC1                                                 Earth MOID = 0.0559 AU
Epoch 2024 Mar. 31.0 TT = JDT 2460400.5                 Veres                   
M 268.28776              (2000.0)            P               Q                  
n   0.70983987     Peri.  304.65669     +0.76841377     -0.27331474             
a   1.2445981      Node    77.75203     +0.57458574     +0.69277185             
e   0.6638674      Incl.   36.30836     -0.28176498     +0.66735764             
P   1.39           H   20.11          G   0.15           U   9                  
Residuals in seconds of arc
240529 W94  0.5+  0.2+    240529 E23  0.2+  0.2+    240530 Y66  0.2-  0.0
240529 W94  0.1+  0.2+    240529 E23  0.4+  0.2+    240530 Y66  0.2-  0.1+
240529 W94  0.6-  0.1-    240529 900  0.2-  0.5+    240530 Y66  0.2+  0.1+
240529 I52  0.0   0.1+    240529 P87  0.1+  0.3-    240530 Y66  0.1-  0.0
240529 I52  0.1+  0.0     240529 900  0.0   0.1-    240530 Y66  0.3-  0.0
240529 I52  0.2-  0.3+    240529 P87  0.1+  0.2+    240530 Y66  0.5+  0.0
240529 I52  0.2-  0.0     240529 900  0.3+  0.0     240530 H21  0.6+  0.1+
240529 W95  0.0   1.6+    240529 O46  0.0   0.0     240530 H21  0.6+  0.6+
240529 I52  0.0   0.0     240529 O46  0.3+  0.2+    240530 H21  1.2+  0.7+
240529 I52  0.1+  0.1-    240529 O46  0.1+  0.0     240530 H21  0.8+  0.1+
240529 W95  0.8-  0.2+    240529 O46  0.2-  0.1-    240530 I52  0.4-  0.4-
240529 W95  0.2-  0.4+    240529 O46  0.1-  0.4+    240530 I52  0.0   0.1+
240529 W95  0.7-  0.3+    240529 C40  0.1-  0.0     240530 I52  0.4-  0.2-
240529 W95  0.5-  0.2+    240529 C40  0.5-  0.2-    240530 V21  0.5-  0.3-
240529 W95  0.2-  0.1+    240529 C40  0.3-  0.3-    240530 I52  0.3-  0.3-
240529 W95  0.4-  0.2+    240529 C40  0.2-  0.2-    240530 U52  0.5-  0.2-
240529 W95  1.2-  0.2+    240529 C40  0.2-  0.2+    240530 U52  0.2-  0.3-
240529 695  0.1-  0.2+    240529 C40  0.3-  0.2+    240530 I52  0.6-  0.3-
240529 695  0.0   0.2+    240529 C40  0.2-  0.2+    240530 U52  0.2+  0.3-
240529 695  0.0   0.2+    240529 C40  0.1+  0.2+    240530 V21  0.7-  0.2-
240529 W95  0.1-  0.2-    240529 595  0.4-  0.1-    240530 V21  0.8-  0.0
240529 V21  0.4+  0.1-    240529 595  0.1+  0.6+    240530 M21  0.8-  0.0
240529 V21  0.0   0.4+    240529 C40  0.2-  0.1-    240530 M21  0.4-  0.1+
240529 Q06  0.5-  1.1-    240529 595  0.1-  0.1+    240531 958  0.9-  0.3+
240529 Q06  0.0   0.4+    240530 L34  0.0   0.8-    240531 958  0.8-  0.1-
240529 Q06  0.2+  0.8-    240530 L65  0.2+  0.4-    240531 958  0.9-  0.0
240529 E23  0.2-  0.2+    240530 L65  0.6-  0.2+

Ephemeris:
2024 KC1                 a,e,i = 1.24, 0.66, 36                  q = 0.4183
Date    TT    R. A. (2000) Decl.     Delta      r    Elong.  Phase     V
2024 05 01    18 34 36.4 -00 18 57   0.6979  1.4755   118.7    36.8    21.7
...
2024 05 16    18 41 17.2 -01 30 16   0.4448  1.3428   130.4    35.0    20.4
...
2024 05 24    18 40 55.1 -03 46 34   0.3149  1.2649   138.2    32.2    19.5
...
2024 05 30    18 36 36.9 -07 40 46   0.2206  1.2030   146.0    28.1    18.5
2024 05 31    18 35 14.9 -08 42 27   0.2053  1.1923   147.6    27.1    18.3
2024 06 01    18 33 35.1 -09 54 31   0.1901  1.1816   149.4    25.9    18.0
...
2024 06 07    18 10 02.9 -24 26 46   0.1043  1.1155   164.1    14.4    16.3
...
2024 06 15    09 18 42.9 -57 58 25   0.06835 1.0224    93.7    82.5    17.2
...
2024 06 30    07 16 43.2 -17 10 20   0.2724  0.8325    41.5   125.9    22.2

M. P. C. Staff               (C) Copyright 2024 MPC           M.P.E.C. 2024-K140





More information about the Iaude mailing list